Location: Boiro
(42.6475°N, 8.8834°W)
Time: 05:00:32
(UTC+01:00)

Transit 4A - Pass Details

Date: 07 December 2021
Orbit: 864 x 980 km, 66.8° (Epoch: 17 January)

Event Time Altitude Azimuth Distance (km) Brightness Sun altitude
Rises 19:44:41 0° 201° (SSW) 3,443 11.4 -18.2°
Reaches altitude 10° 19:47:08 10° 199° (SSW) 2,519 10.6 -18.7°
Maximum altitude 19:52:55 69° 117° (ESE) 949 7.7 -19.7°
Enters shadow 19:55:57 30° 41° (NE) 1,559 8.6 -20.3°
